Tracking 35280 objects as of 7-Sep-2026
HD Live streaming from Space Station
objects crossing your sky now

COSMOS 1501 DEB


COSMOS 1501 DEB is no longer on orbit


NORAD ID: 14733
Int'l Code: 1983-101D
Launch date: September 30, 1983
Source: Commonwealth of Independent States (former USSR) (CIS)
Launch site: PLESETSK MISSILE AND SPACE COMPLEX (PKMTR)
Decay date: 1984-04-28

Note: This is SATELLITE DEBRIS
Your satellite tracking list
Your tracking list is empty




NASA's NSSDC Master Catalog

Two Line Element Set (TLE):
1 14733U 83101  D 84119.12374510  .12135311 -98388-5 +34316-2 0  9995
2 14733 082.8992 000.5805 0049025 123.4121 245.7820 16.24215857032273
Source of the keplerian elements: AFSPC